AO-85 (40967 NORAD) Tracking and Keplerian Element Data

This shows tracking and keplerian element data for the satellite.

Feedback or suggestion? Click here.




ElementValue
Catalog40967
NameAO-85
Epoch Orbit9455
Epoch Day80.35338418
Epoch Year2019
RAAN69.6722
Inclination64.7753
Eccentricity0.0208861
Argument of Perigee230.502
Mean Anonmoly127.7448
Mean Motion14.75899544
Decay Rate1.55E-06
L11 40967U 15058D 19080.35338418 .00000155 00000-0 34158-4 0 06328
L22 40967 064.7753 069.6722 0208861 230.5020 127.7448 14.75899544094551

Live tracking and technical data element details for AO-85 (NORAD 40967). AO-85 can be tracked NOW for your location showing map with azimuth and elevation plus other details from your city location.

Track the satellite on the map from your city or location and see movement details for azimuth, elevation, latitude, longitude, range, height, and movement on the map or in text.







IsCatalogInMostPopularTable: catalog: 40967, numindb: 261
Update: records affected: 1



GetName: 40967 AO-85

Hit Count: updated at: Sat, 23 Mar 2019 02:14:46 GMT